DAL662 KSYR-KORD

Flight info

Callsign DAL662
Flight time 1h 35m
Altitude 36000
Route SYR DINES YXU FNT WYNDE3
Aircraft A21N/M-SDE2E3FGHIRWXY/LB1

Departure

Time 2026-04-26 18:36
Airport Syracuse Hancock International Airport (KSYR)

Arrival

Time 2026-04-26 20:12
Airport Chicago O'Hare International Airport (KORD)
Time Latitude Longitude Altitude Speed Heading
2026-04-26 18:17 43.11442 -76.10964 413 ft 0 kts 322°
2026-04-26 18:24 43.11436 -76.10958 425 ft 2 kts 338°
2026-04-26 18:25 43.11420 -76.10956 415 ft 2 kts 28°
2026-04-26 18:25 43.11408 -76.10971 416 ft 2 kts 54°
2026-04-26 18:25 43.11401 -76.10991 418 ft 2 kts 75°
2026-04-26 18:25 43.11398 -76.11013 422 ft 2 kts 85°
2026-04-26 18:26 43.11398 -76.11024 422 ft 0 kts 88°
2026-04-26 18:29 43.11400 -76.10941 416 ft 13 kts 88°
2026-04-26 18:30 43.11400 -76.10889 423 ft 7 kts 89°
2026-04-26 18:30 43.11401 -76.10853 425 ft 2 kts 88°
2026-04-26 18:30 43.11392 -76.10838 425 ft 5 kts 152°
2026-04-26 18:30 43.11336 -76.10829 420 ft 11 kts 185°
2026-04-26 18:31 43.11247 -76.10826 423 ft 13 kts 176°
2026-04-26 18:31 43.11146 -76.10820 425 ft 17 kts 178°
2026-04-26 18:31 43.11019 -76.10847 418 ft 19 kts 230°
2026-04-26 18:31 43.10995 -76.11047 434 ft 27 kts 268°
2026-04-26 18:32 43.10987 -76.11344 419 ft 33 kts 267°
2026-04-26 18:32 43.10975 -76.11660 429 ft 34 kts 268°
2026-04-26 18:32 43.10965 -76.11991 429 ft 34 kts 267°
2026-04-26 18:32 43.10954 -76.12305 424 ft 33 kts 268°
2026-04-26 18:33 43.10950 -76.12453 436 ft 18 kts 266°
2026-04-26 18:33 43.10940 -76.12587 430 ft 0 kts 251°
2026-04-26 18:33 43.10938 -76.12592 431 ft 6 kts 248°
2026-04-26 18:34 43.10853 -76.12588 425 ft 19 kts 139°
2026-04-26 18:34 43.10825 -76.12500 433 ft 1 kts 88°
2026-04-26 18:34 43.10825 -76.12496 434 ft 0 kts 88°
2026-04-26 18:35 43.10833 -76.12200 423 ft 69 kts 88°
2026-04-26 18:35 43.10865 -76.11193 426 ft 144 kts 88°
2026-04-26 18:36 43.10914 -76.09524 503 ft 197 kts 88°
2026-04-26 18:36 43.10951 -76.07553 953 ft 215 kts 88°
2026-04-26 18:36 43.10990 -76.05439 1614 ft 231 kts 86°
2026-04-26 18:36 43.11052 -76.03197 2325 ft 240 kts 86°
2026-04-26 18:37 43.11127 -76.00871 3092 ft 251 kts 85°
2026-04-26 18:37 43.11219 -75.98412 3878 ft 262 kts 86°
2026-04-26 18:37 43.11283 -75.95966 5095 ft 253 kts 87°
2026-04-26 18:37 43.11341 -75.93588 6056 ft 255 kts 87°
2026-04-26 18:38 43.11529 -75.91164 6874 ft 258 kts 75°
2026-04-26 18:38 43.12211 -75.88881 7637 ft 262 kts 55°
2026-04-26 18:38 43.13505 -75.87131 8413 ft 265 kts 29°
2026-04-26 18:38 43.15257 -75.86389 9275 ft 268 kts
2026-04-26 18:39 43.17073 -75.86896 10157 ft 272 kts 335°
2026-04-26 18:39 43.18577 -75.88580 10585 ft 295 kts 307°
2026-04-26 18:39 43.19363 -75.91290 10934 ft 322 kts 281°
2026-04-26 18:39 43.19407 -75.94405 11360 ft 341 kts 269°
2026-04-26 18:40 43.19120 -75.97628 11963 ft 351 kts 264°
2026-04-26 18:40 43.18666 -76.00964 12730 ft 356 kts 262°
2026-04-26 18:40 43.18168 -76.04307 13531 ft 359 kts 262°
2026-04-26 18:40 43.17677 -76.07682 14297 ft 363 kts 263°
2026-04-26 18:41 43.17209 -76.11088 15011 ft 365 kts 264°
2026-04-26 18:41 43.16766 -76.14521 15703 ft 368 kts 265°
2026-04-26 18:41 43.16423 -76.17908 16355 ft 369 kts 271°
2026-04-26 18:41 43.16446 -76.21453 17062 ft 366 kts 281°
2026-04-26 18:42 43.16801 -76.24905 17764 ft 366 kts 285°
2026-04-26 18:42 43.17290 -76.28331 18458 ft 367 kts 287°
2026-04-26 18:42 43.17855 -76.31756 19041 ft 370 kts 288°
2026-04-26 18:42 43.18456 -76.35191 19629 ft 372 kts 289°
2026-04-26 18:43 43.19067 -76.38646 20206 ft 374 kts 288°
2026-04-26 18:43 43.19675 -76.42121 20780 ft 377 kts 288°
2026-04-26 18:43 43.20278 -76.45625 21364 ft 379 kts 288°
2026-04-26 18:43 43.20867 -76.49107 21927 ft 382 kts 288°
2026-04-26 18:44 43.21463 -76.52675 22443 ft 385 kts 288°
2026-04-26 18:44 43.22059 -76.56262 22965 ft 388 kts 287°
2026-04-26 18:44 43.22656 -76.59880 23499 ft 390 kts 287°
2026-04-26 18:44 43.23254 -76.63516 23974 ft 392 kts 287°
2026-04-26 18:45 43.23856 -76.67181 24406 ft 394 kts 287°
2026-04-26 18:45 43.24459 -76.70860 24821 ft 396 kts 287°
2026-04-26 18:45 43.25065 -76.74553 25237 ft 398 kts 287°
2026-04-26 18:45 43.25672 -76.78270 25643 ft 400 kts 287°
2026-04-26 18:46 43.26274 -76.81954 26038 ft 402 kts 287°
2026-04-26 18:46 43.26885 -76.85704 26420 ft 404 kts 287°
2026-04-26 18:46 43.27498 -76.89469 26766 ft 406 kts 287°
2026-04-26 18:46 43.28111 -76.93246 27105 ft 408 kts 287°
2026-04-26 18:47 43.28730 -76.97072 27461 ft 410 kts 287°
2026-04-26 18:47 43.29348 -77.00899 27801 ft 412 kts 286°
2026-04-26 18:47 43.29967 -77.04746 28139 ft 413 kts 286°
2026-04-26 18:47 43.30573 -77.08609 28459 ft 416 kts 284°
2026-04-26 18:48 43.30934 -77.12575 28798 ft 421 kts 277°
2026-04-26 18:48 43.30944 -77.16599 29224 ft 422 kts 273°
2026-04-26 18:48 43.30824 -77.20622 29664 ft 422 kts 272°
2026-04-26 18:48 43.30644 -77.24581 30085 ft 420 kts 271°
2026-04-26 18:49 43.30431 -77.28574 30499 ft 418 kts 270°
2026-04-26 18:49 43.30207 -77.32552 30838 ft 417 kts 270°
2026-04-26 18:49 43.29982 -77.36515 31147 ft 417 kts 270°
2026-04-26 18:49 43.29762 -77.40477 31443 ft 416 kts 270°
2026-04-26 18:50 43.29545 -77.44431 31743 ft 415 kts 270°
2026-04-26 18:50 43.29331 -77.48377 32033 ft 414 kts 270°
2026-04-26 18:50 43.29191 -77.50985 32222 ft 414 kts 271°
2026-04-26 18:50 43.28979 -77.54921 32501 ft 413 kts 271°
2026-04-26 18:51 43.28697 -77.60120 32845 ft 412 kts 270°
2026-04-26 18:51 43.28485 -77.64026 33122 ft 411 kts 270°
2026-04-26 18:51 43.28271 -77.67927 33396 ft 410 kts 270°
2026-04-26 18:51 43.28055 -77.71823 33659 ft 409 kts 270°
2026-04-26 18:52 43.27839 -77.75705 33903 ft 408 kts 270°
2026-04-26 18:52 43.27695 -77.78274 34061 ft 407 kts 270°
2026-04-26 18:52 43.27477 -77.82141 34293 ft 407 kts 270°
2026-04-26 18:52 43.27259 -77.86002 34450 ft 407 kts 270°
2026-04-26 18:53 43.27039 -77.89880 34595 ft 407 kts 270°
2026-04-26 18:53 43.26745 -77.95020 34758 ft 408 kts 270°
2026-04-26 18:53 43.26521 -77.98900 34892 ft 409 kts 269°
2026-04-26 18:53 43.26295 -78.02785 35015 ft 409 kts 269°
2026-04-26 18:54 43.26068 -78.06678 35146 ft 409 kts 269°
2026-04-26 18:54 43.25916 -78.09259 35241 ft 410 kts 269°
2026-04-26 18:54 43.25686 -78.13154 35349 ft 410 kts 269°
2026-04-26 18:54 43.25455 -78.17055 35456 ft 411 kts 269°
2026-04-26 18:55 43.25222 -78.20960 35576 ft 411 kts 269°
2026-04-26 18:55 43.24987 -78.24874 35660 ft 412 kts 269°
2026-04-26 18:55 43.24433 -78.34012 35845 ft 415 kts 269°
2026-04-26 18:56 43.24028 -78.40626 35959 ft 417 kts 269°
2026-04-26 18:56 43.23539 -78.48523 35985 ft 419 kts 269°
2026-04-26 18:57 43.23125 -78.55129 35988 ft 418 kts 269°
2026-04-26 18:57 43.22536 -78.64422 35986 ft 418 kts 269°
2026-04-26 18:58 43.22027 -78.72372 35988 ft 418 kts 268°
2026-04-26 18:58 43.21516 -78.80259 35983 ft 418 kts 268°
2026-04-26 18:59 43.20996 -78.88201 35986 ft 418 kts 268°
2026-04-26 18:59 43.20471 -78.96144 35980 ft 419 kts 268°
2026-04-26 19:00 43.19940 -79.04081 35995 ft 419 kts 268°
2026-04-26 19:00 43.19406 -79.11987 35991 ft 419 kts 268°
2026-04-26 19:01 43.18864 -79.19928 35992 ft 419 kts 268°
2026-04-26 19:01 43.18315 -79.27881 35992 ft 419 kts 268°
2026-04-26 19:02 43.17761 -79.35833 35994 ft 420 kts 268°
2026-04-26 19:02 43.17296 -79.42449 35992 ft 420 kts 268°
2026-04-26 19:03 43.16640 -79.51691 36002 ft 419 kts 268°
2026-04-26 19:03 43.16069 -79.59634 35998 ft 419 kts 268°
2026-04-26 19:04 43.15493 -79.67578 36000 ft 420 kts 268°
2026-04-26 19:04 43.14910 -79.75551 35994 ft 421 kts 268°
2026-04-26 19:05 43.14027 -79.87445 35995 ft 420 kts 268°
2026-04-26 19:06 43.13429 -79.95407 35995 ft 420 kts 268°
2026-04-26 19:06 43.12855 -80.02990 35991 ft 420 kts 268°
2026-04-26 19:07 43.12248 -80.10947 35991 ft 420 kts 268°
2026-04-26 19:07 43.11640 -80.18841 35984 ft 420 kts 267°
2026-04-26 19:08 43.11022 -80.26789 35984 ft 420 kts 267°
2026-04-26 19:08 43.10399 -80.34724 35983 ft 419 kts 267°
2026-04-26 19:09 43.09771 -80.42660 35977 ft 419 kts 267°
2026-04-26 19:09 43.09142 -80.50536 35977 ft 419 kts 267°
2026-04-26 19:10 43.08503 -80.58461 35977 ft 419 kts 267°
2026-04-26 19:10 43.07860 -80.66368 35975 ft 419 kts 267°
2026-04-26 19:11 43.07211 -80.74282 35974 ft 419 kts 267°
2026-04-26 19:11 43.06562 -80.82141 35975 ft 419 kts 267°
2026-04-26 19:12 43.05902 -80.90053 35974 ft 419 kts 267°
2026-04-26 19:12 43.05236 -80.97968 35975 ft 419 kts 267°
2026-04-26 19:13 43.04565 -81.05879 35973 ft 419 kts 267°
2026-04-26 19:13 43.03915 -81.13738 35973 ft 418 kts 270°
2026-04-26 19:14 43.03699 -81.21648 35974 ft 416 kts 271°
2026-04-26 19:14 43.03553 -81.29557 35963 ft 416 kts 271°
2026-04-26 19:15 43.03410 -81.37462 35972 ft 416 kts 271°
2026-04-26 19:15 43.03265 -81.45308 35973 ft 416 kts 271°
2026-04-26 19:16 43.03114 -81.53202 35977 ft 416 kts 271°
2026-04-26 19:16 43.02958 -81.61110 35975 ft 416 kts 271°
2026-04-26 19:17 43.02797 -81.69010 35973 ft 416 kts 271°
2026-04-26 19:17 43.02631 -81.76852 35975 ft 415 kts 271°
2026-04-26 19:18 43.02459 -81.84746 35976 ft 415 kts 271°
2026-04-26 19:18 43.02282 -81.92636 35977 ft 415 kts 271°
2026-04-26 19:19 43.02099 -82.00519 35977 ft 415 kts 271°
2026-04-26 19:19 43.01912 -82.08354 35973 ft 415 kts 271°
2026-04-26 19:20 43.01719 -82.16236 35977 ft 415 kts 271°
2026-04-26 19:20 43.01520 -82.24119 35976 ft 415 kts 271°
2026-04-26 19:21 43.01315 -82.32003 35978 ft 415 kts 271°
2026-04-26 19:21 43.01107 -82.39833 35968 ft 415 kts 271°
2026-04-26 19:22 43.00892 -82.47702 35979 ft 414 kts 271°
2026-04-26 19:22 43.00672 -82.55567 35978 ft 414 kts 271°
2026-04-26 19:23 43.00446 -82.63438 35970 ft 414 kts 271°
2026-04-26 19:23 43.00217 -82.71248 35967 ft 414 kts 271°
2026-04-26 19:24 42.99981 -82.79110 35953 ft 414 kts 271°
2026-04-26 19:24 42.99617 -82.90891 35957 ft 414 kts 271°
2026-04-26 19:25 42.99410 -82.97419 35949 ft 414 kts 271°
2026-04-26 19:25 42.99115 -83.06545 35952 ft 414 kts 271°
2026-04-26 19:26 42.98855 -83.14389 35960 ft 414 kts 271°
2026-04-26 19:26 42.98590 -83.22226 35953 ft 412 kts 270°
2026-04-26 19:27 42.98320 -83.30044 35954 ft 412 kts 270°
2026-04-26 19:27 42.98046 -83.37858 35953 ft 412 kts 270°
2026-04-26 19:28 42.97767 -83.45615 35956 ft 412 kts 270°
2026-04-26 19:28 42.97482 -83.53426 35952 ft 412 kts 270°
2026-04-26 19:29 42.97193 -83.61212 35957 ft 410 kts 270°
2026-04-26 19:29 42.96898 -83.68986 35957 ft 410 kts 270°
2026-04-26 19:30 42.96503 -83.76596 35960 ft 407 kts 266°
2026-04-26 19:30 42.95903 -83.83006 35958 ft 412 kts 265°
2026-04-26 19:31 42.95018 -83.92074 35950 ft 412 kts 265°
2026-04-26 19:31 42.94266 -83.99798 35947 ft 410 kts 265°
2026-04-26 19:32 42.93518 -84.07450 35874 ft 408 kts 265°
2026-04-26 19:32 42.93141 -84.11277 35339 ft 406 kts 265°
2026-04-26 19:32 42.92767 -84.15076 34820 ft 402 kts 265°
2026-04-26 19:33 42.92394 -84.18841 34313 ft 399 kts 265°
2026-04-26 19:33 42.92023 -84.22583 33671 ft 398 kts 265°
2026-04-26 19:33 42.91652 -84.26320 32900 ft 399 kts 265°
2026-04-26 19:33 42.91277 -84.30084 32097 ft 402 kts 264°
2026-04-26 19:34 42.90899 -84.33867 31384 ft 403 kts 264°
2026-04-26 19:34 42.90525 -84.37590 30738 ft 402 kts 264°
2026-04-26 19:34 42.90145 -84.41356 30195 ft 400 kts 264°
2026-04-26 19:34 42.89765 -84.45106 29961 ft 399 kts 263°
2026-04-26 19:35 42.89002 -84.52612 29933 ft 400 kts 263°
2026-04-26 19:35 42.88234 -84.60121 29940 ft 401 kts 263°
2026-04-26 19:36 42.87593 -84.66397 29943 ft 401 kts 264°
2026-04-26 19:36 42.86714 -84.75125 29941 ft 399 kts 264°
2026-04-26 19:37 42.85968 -84.82602 29937 ft 399 kts 264°
2026-04-26 19:37 42.85224 -84.90117 29933 ft 400 kts 264°
2026-04-26 19:38 42.84493 -84.97573 29930 ft 400 kts 264°
2026-04-26 19:38 42.83763 -85.05069 29920 ft 399 kts 264°
2026-04-26 19:39 42.83048 -85.12558 29921 ft 398 kts 264°
2026-04-26 19:39 42.82341 -85.20043 29919 ft 398 kts 264°
2026-04-26 19:40 42.81642 -85.27523 29923 ft 397 kts 264°
2026-04-26 19:40 42.80957 -85.34934 29920 ft 397 kts 264°
2026-04-26 19:41 42.80273 -85.42387 29927 ft 397 kts 264°
2026-04-26 19:41 42.79718 -85.48565 29917 ft 396 kts 264°
2026-04-26 19:42 42.79277 -85.53556 29647 ft 396 kts 264°
2026-04-26 19:42 42.78949 -85.57275 29360 ft 395 kts 263°
2026-04-26 19:42 42.78457 -85.60901 28900 ft 395 kts 257°
2026-04-26 19:42 42.77713 -85.64511 28063 ft 398 kts 255°
2026-04-26 19:43 42.76894 -85.68144 27105 ft 404 kts 254°
2026-04-26 19:43 42.76068 -85.71826 26171 ft 409 kts 254°
2026-04-26 19:43 42.75247 -85.75539 25099 ft 409 kts 254°
2026-04-26 19:43 42.74446 -85.79229 24054 ft 404 kts 254°
2026-04-26 19:44 42.73668 -85.82883 22936 ft 400 kts 254°
2026-04-26 19:44 42.72916 -85.86498 21782 ft 395 kts 254°
2026-04-26 19:44 42.72198 -85.90031 21220 ft 377 kts 254°
2026-04-26 19:44 42.71535 -85.93350 20672 ft 362 kts 254°
2026-04-26 19:45 42.70895 -85.96600 20121 ft 348 kts 254°
2026-04-26 19:45 42.70286 -85.99735 19917 ft 342 kts 254°
2026-04-26 19:45 42.69681 -86.02874 19912 ft 343 kts 254°
2026-04-26 19:45 42.69078 -86.06009 19907 ft 342 kts 255°
2026-04-26 19:46 42.68479 -86.09132 19909 ft 342 kts 255°
2026-04-26 19:46 42.67884 -86.12237 19906 ft 335 kts 255°
2026-04-26 19:46 42.67286 -86.15308 19913 ft 338 kts 254°
2026-04-26 19:46 42.66663 -86.18362 19917 ft 341 kts 253°
2026-04-26 19:47 42.66029 -86.21466 19912 ft 342 kts 253°
2026-04-26 19:47 42.65599 -86.23577 19906 ft 342 kts 253°
2026-04-26 19:47 42.64761 -86.27694 19998 ft 344 kts 253°
2026-04-26 19:47 42.64107 -86.30896 20012 ft 361 kts 253°
2026-04-26 19:48 42.63423 -86.34250 20016 ft 373 kts 253°
2026-04-26 19:48 42.62727 -86.37662 20014 ft 376 kts 253°
2026-04-26 19:48 42.62025 -86.41092 20010 ft 377 kts 253°
2026-04-26 19:48 42.61260 -86.44488 20012 ft 377 kts 252°
2026-04-26 19:49 42.60474 -86.47876 20013 ft 377 kts 252°
2026-04-26 19:49 42.59809 -86.51264 19987 ft 377 kts 256°
2026-04-26 19:49 42.59243 -86.54738 19661 ft 376 kts 256°
2026-04-26 19:49 42.58664 -86.58197 19266 ft 375 kts 256°
2026-04-26 19:50 42.58062 -86.61626 18882 ft 373 kts 255°
2026-04-26 19:50 42.57443 -86.65036 18515 ft 372 kts 255°
2026-04-26 19:50 42.56814 -86.68429 18092 ft 369 kts 254°
2026-04-26 19:50 42.56158 -86.71787 17669 ft 367 kts 251°
2026-04-26 19:51 42.55346 -86.75063 17246 ft 365 kts 249°
2026-04-26 19:51 42.54495 -86.78250 16837 ft 363 kts 248°
2026-04-26 19:51 42.53626 -86.81456 16426 ft 362 kts 248°
2026-04-26 19:51 42.52759 -86.84649 16022 ft 360 kts 248°
2026-04-26 19:52 42.51895 -86.87829 15628 ft 358 kts 248°
2026-04-26 19:52 42.51036 -86.90992 15231 ft 357 kts 248°
2026-04-26 19:52 42.50181 -86.94137 14860 ft 355 kts 248°
2026-04-26 19:52 42.49327 -86.97273 14503 ft 354 kts 248°
2026-04-26 19:53 42.48476 -87.00398 14143 ft 353 kts 248°
2026-04-26 19:53 42.47639 -87.03467 13776 ft 352 kts 248°
2026-04-26 19:53 42.46792 -87.06567 13384 ft 350 kts 248°
2026-04-26 19:53 42.45946 -87.09660 12994 ft 349 kts 248°
2026-04-26 19:54 42.45105 -87.12733 12610 ft 348 kts 247°
2026-04-26 19:54 42.44267 -87.15791 12235 ft 346 kts 247°
2026-04-26 19:54 42.43430 -87.18842 11858 ft 345 kts 247°
2026-04-26 19:54 42.42595 -87.21880 11481 ft 344 kts 247°
2026-04-26 19:55 42.41763 -87.24904 11152 ft 342 kts 247°
2026-04-26 19:55 42.40933 -87.27919 11026 ft 342 kts 247°
2026-04-26 19:55 42.40104 -87.30927 11018 ft 342 kts 247°
2026-04-26 19:55 42.39285 -87.33894 11027 ft 341 kts 247°
2026-04-26 19:56 42.38452 -87.36907 11016 ft 342 kts 247°
2026-04-26 19:56 42.37619 -87.39915 11019 ft 342 kts 247°
2026-04-26 19:56 42.36786 -87.42921 11023 ft 342 kts 247°
2026-04-26 19:56 42.35953 -87.45926 11020 ft 342 kts 247°
2026-04-26 19:57 42.35118 -87.48933 11016 ft 342 kts 247°
2026-04-26 19:57 42.34202 -87.51888 11011 ft 338 kts 239°
2026-04-26 19:57 42.32855 -87.54363 11012 ft 324 kts 223°
2026-04-26 19:57 42.31135 -87.56394 11017 ft 332 kts 218°
2026-04-26 19:58 42.29334 -87.58308 11020 ft 335 kts 217°
2026-04-26 19:58 42.27489 -87.60240 10952 ft 336 kts 217°
2026-04-26 19:58 42.25642 -87.62169 10591 ft 335 kts 217°
2026-04-26 19:58 42.23801 -87.64094 10118 ft 334 kts 217°
2026-04-26 19:59 42.21969 -87.66013 9607 ft 333 kts 217°
2026-04-26 19:59 42.20150 -87.67920 9090 ft 331 kts 216°
2026-04-26 19:59 42.18336 -87.69822 8568 ft 329 kts 216°
2026-04-26 19:59 42.16537 -87.71709 8064 ft 327 kts 216°
2026-04-26 20:00 42.14744 -87.73586 7581 ft 325 kts 216°
2026-04-26 20:00 42.12963 -87.75451 7150 ft 322 kts 216°
2026-04-26 20:00 42.11227 -87.77336 7003 ft 321 kts 221°
2026-04-26 20:00 42.09850 -87.79668 6988 ft 326 kts 240°
2026-04-26 20:01 42.09197 -87.82602 6993 ft 332 kts 261°
2026-04-26 20:01 42.09101 -87.85723 6994 ft 335 kts 267°
2026-04-26 20:01 42.09120 -87.88860 6990 ft 336 kts 267°
2026-04-26 20:01 42.09146 -87.92009 6991 ft 336 kts 268°
2026-04-26 20:02 42.09164 -87.95153 6991 ft 336 kts 267°
2026-04-26 20:02 42.09176 -87.98293 6941 ft 336 kts 267°
2026-04-26 20:02 42.09180 -88.01428 6635 ft 335 kts 267°
2026-04-26 20:02 42.09179 -88.03506 6393 ft 334 kts 267°
2026-04-26 20:03 42.09169 -88.07637 5891 ft 333 kts 267°
2026-04-26 20:03 42.09162 -88.10732 5527 ft 325 kts 266°
2026-04-26 20:03 42.09154 -88.13720 5134 ft 315 kts 267°
2026-04-26 20:03 42.09146 -88.16638 4751 ft 307 kts 267°
2026-04-26 20:04 42.09135 -88.19476 4370 ft 299 kts 267°
2026-04-26 20:04 42.09124 -88.22243 4036 ft 291 kts 266°
2026-04-26 20:04 42.09114 -88.24892 3961 ft 274 kts 265°
2026-04-26 20:04 42.08773 -88.27276 3945 ft 247 kts 239°
2026-04-26 20:05 42.07739 -88.28925 3952 ft 222 kts 207°
2026-04-26 20:05 42.06359 -88.29530 3995 ft 207 kts 183°
2026-04-26 20:05 42.04917 -88.29579 3974 ft 209 kts 177°
2026-04-26 20:05 42.03463 -88.29528 3960 ft 209 kts 176°
2026-04-26 20:06 42.02023 -88.29343 3952 ft 207 kts 162°
2026-04-26 20:06 42.00906 -88.28214 3945 ft 207 kts 122°
2026-04-26 20:06 42.00422 -88.26374 3963 ft 212 kts 104°
2026-04-26 20:06 42.00285 -88.24393 3957 ft 215 kts 96°
2026-04-26 20:07 42.00277 -88.22369 3957 ft 217 kts 93°
2026-04-26 20:07 42.00283 -88.20362 3956 ft 217 kts 93°
2026-04-26 20:07 42.00292 -88.18392 3948 ft 204 kts 94°
2026-04-26 20:07 42.00295 -88.16530 3948 ft 196 kts 94°
2026-04-26 20:08 42.00289 -88.14702 3928 ft 195 kts 95°
2026-04-26 20:08 42.00281 -88.12902 3709 ft 188 kts 94°
2026-04-26 20:08 42.00281 -88.11164 3452 ft 183 kts 94°
2026-04-26 20:08 42.00284 -88.09494 3221 ft 177 kts 94°
2026-04-26 20:09 42.00281 -88.07857 2940 ft 170 kts 93°
2026-04-26 20:09 42.00283 -88.06344 2736 ft 155 kts 94°
2026-04-26 20:09 42.00282 -88.04940 2530 ft 151 kts 94°
2026-04-26 20:09 42.00282 -88.03532 2316 ft 150 kts 92°
2026-04-26 20:10 42.00282 -88.02124 2156 ft 150 kts 93°
2026-04-26 20:10 42.00283 -88.00743 1903 ft 147 kts 91°
2026-04-26 20:10 42.00279 -87.99393 1650 ft 138 kts 90°
2026-04-26 20:10 42.00274 -87.98100 1456 ft 142 kts 89°
2026-04-26 20:11 42.00281 -87.96772 1335 ft 141 kts 91°
2026-04-26 20:11 42.00268 -87.95458 1139 ft 140 kts 89°
2026-04-26 20:11 42.00282 -87.94145 911 ft 140 kts 90°
2026-04-26 20:12 42.00283 -87.91669 673 ft 120 kts 90°
2026-04-26 20:12 42.00282 -87.91003 673 ft 23 kts 90°
2026-04-26 20:12 42.00283 -87.90858 672 ft 26 kts 89°
2026-04-26 20:12 42.00283 -87.90627 674 ft 23 kts 94°
2026-04-26 20:13 42.00269 -87.90413 669 ft 23 kts 96°
2026-04-26 20:13 42.00238 -87.90205 664 ft 21 kts 109°
2026-04-26 20:13 42.00163 -87.90031 661 ft 22 kts 130°
2026-04-26 20:13 42.00111 -87.89973 661 ft 0 kts 149°
2026-04-26 20:14 42.00085 -87.89955 662 ft 15 kts 154°
2026-04-26 20:14 41.99972 -87.89922 666 ft 19 kts 177°
2026-04-26 20:15 41.99836 -87.89934 677 ft 21 kts 194°
2026-04-26 20:15 41.99686 -87.90025 678 ft 28 kts 195°
2026-04-26 20:15 41.99488 -87.90045 681 ft 29 kts 179°
2026-04-26 20:15 41.99280 -87.90046 675 ft 28 kts 182°
2026-04-26 20:16 41.99070 -87.90043 668 ft 32 kts 178°
2026-04-26 20:16 41.98973 -87.90042 666 ft 2 kts 180°
2026-04-26 20:16 41.98832 -87.90041 669 ft 36 kts 180°
2026-04-26 20:16 41.98565 -87.90040 667 ft 41 kts 179°
2026-04-26 20:17 41.98311 -87.90031 667 ft 15 kts 153°
2026-04-26 20:17 41.98305 -87.90026 665 ft 0 kts 145°
2026-04-26 20:17 41.98303 -87.90024 666 ft 0 kts 146°
2026-04-26 20:17 41.98305 -87.90026 666 ft 2 kts 145°
2026-04-26 20:18 41.98321 -87.90040 667 ft 1 kts 221°
2026-04-26 20:18 41.98305 -87.90068 665 ft 7 kts 237°
2026-04-26 20:18 41.98298 -87.90086 663 ft 0 kts 249°
2026-04-26 20:18 41.98275 -87.90096 665 ft 6 kts 172°
2026-04-26 20:19 41.98268 -87.90075 665 ft 7 kts 77°
2026-04-26 20:19 41.98287 -87.89982 666 ft 16 kts 81°
2026-04-26 20:19 41.98290 -87.89814 670 ft 21 kts 90°
2026-04-26 20:19 41.98289 -87.89680 668 ft 0 kts 90°
2026-04-26 20:20 41.98289 -87.89629 667 ft 13 kts 91°
2026-04-26 20:20 41.98288 -87.89609 667 ft 0 kts 91°
2026-04-26 20:21 41.98280 -87.89573 665 ft 10 kts 118°
2026-04-26 20:21 41.98236 -87.89501 667 ft 13 kts 133°
2026-04-26 20:21 41.98142 -87.89373 665 ft 23 kts 134°
2026-04-26 20:21 41.98112 -87.89335 664 ft 5 kts 148°
2026-04-26 20:22 41.98085 -87.89332 664 ft 2 kts 185°
2026-04-26 20:22 41.98035 -87.89376 663 ft 13 kts 227°
2026-04-26 20:22 41.97973 -87.89475 663 ft 17 kts 229°
2026-04-26 20:22 41.97879 -87.89521 667 ft 15 kts 180°
2026-04-26 20:23 41.97797 -87.89559 662 ft 0 kts 225°
2026-04-26 20:23 41.97793 -87.89572 662 ft 7 kts 251°
2026-04-26 20:23 41.97760 -87.89681 663 ft 0 kts 225°